Tracking 22993 objects as of 10-May-2021
HD Live streaming from Space Station
objects crossing your sky now

SCOUT G-1 DEB

Track SCOUT G-1 DEB now!
10-day predictions


NORAD ID: 18426
Int'l Code: 1986-088C
Perigee: 945.0 km
Apogee: 1,047.5 km
Inclination: 89.1 °
Period: 104.9 minutes
Semi major axis: 7367 km
RCS: 0.0396 m2 (small)
Launch date: November 14, 1986
Source: United States (US)
Launch site: AIR FORCE WESTERN TEST RANGE (AFWTR)

Note: This is SATELLITE DEBRIS
aabbcc
Your satellite tracking list
Your tracking list is empty




NASA's NSSDC Master Catalog

Two Line Element Set (TLE):
1 18426U 86088C   21130.31650251  .00000118  00000-0  11296-3 0  9993
2 18426  89.1294  63.0643 0069598 355.9431 129.2387 13.72920336725399
Source of the keplerian elements: AFSPC